Regional Weather Roundup
Issued by NWS Sioux Falls, SD

Home | Current Version | Previous Version | Graphics & Text | Print | Product List | Glossary Off
Versions: 1 2 3 4 5 6 7 8 9 10 11 12 13 14 15 16 17 18 19 20 21 22 23 24 25 26 27 28 29 30 31 32 33 34 35 36 37 38 39 40 41 42 43 44 45 46 47 48 49 50

000
ASUS43 KFSD 161102
RWRFSD

WEATHER ROUNDUP FOR SE SOUTH DAKOTA/SW MINNESOTA/NW IOWA
NATIONAL WEATHER SERVICE SIOUX FALLS SD
500 AM CST SAT DEC 16 2017

NOTE: "FAIR" INDICATES FEW OR NO CLOUDS BELOW 12,000 FEET WITH NO
SIGNIFICANT WEATHER AND OR OBSTRUCTIONS TO VISIBILITY.


SDZ038>040-050-052>070-161200-
SOUTHEAST SOUTH DAKOTA

CITY           SKY/WX    TMP DP  RH WIND       PRES   REMARKS
BROOKINGS      CLOUDY    30  25  81 MISG      29.67R
CHAMBERLAIN    CLOUDY    37  26  65 N7        29.71F
HURON          CLOUDY    28  23  81 NW7       29.71R WCI  21
MADISON        FAIR      28  28 100 NW8       29.67R WCI  20
MITCHELL       CLOUDY    33  25  72 W9        29.72R WCI  25
SIOUX FALLS    CLOUDY    33  26  75 NW5       29.67R WCI  29
WINNER         FAIR      35  23  61 W6        29.73R
YANKTON        CLOUDY    36  24  62 SW5       29.71R
$$

MNZ071-072-080-081-089-090-097-098-161200-
SOUTHWEST MINNESOTA

CITY           SKY/WX    TMP DP  RH WIND       PRES   REMARKS
FAIRMONT       CLOUDY    32  26  78 W7        29.66R WCI  26
JACKSON        CLOUDY    32  27  80 W7        29.66R WCI  26
LUVERNE        CLOUDY    28  23  80 CALM      29.68R
MARSHALL       CLOUDY    31  27  85 W8        29.66R WCI  23
MONTEVIDEO     CLOUDY    28  27  93 E3        29.65S
PIPESTONE      CLOUDY    25  21  86 SW7       29.67R WCI  17
REDWOOD FALLS  CLOUDY    30  28  92 N3        29.65R
WINDOM           N/A     30  18  59 W3        29.65R
WORTHINGTON    CLOUDY    30  25  81 W13       29.67R WCI  20
$$

IAZ001>003-012>014-020>022-031-032-NEZ013-014-SDZ071-161200-
NORTHWEST IOWA

CITY           SKY/WX    TMP DP  RH WIND       PRES   REMARKS
CHEROKEE       PTCLDY    27  23  85 CALM      29.69R
DENISON        CLOUDY    34  21  60 SW5       29.72S WCI  30
ESTHERVILLE    CLOUDY    27  23  85 SW9       29.65R WCI  18
LE MARS        CLOUDY    27  23  86 S7        29.70R WCI  19
ORANGE CITY    CLOUDY    30  27  86 SW5       29.67S WCI  25
SHELDON        CLOUDY    23  21  93 CALM      29.66R
SIOUX CITY     CLOUDY    24  20  84 E5        29.72R WCI  18
SPENCER        CLOUDY    25  20  81 CALM      29.67R
STORM LAKE     CLOUDY    28  21  74 SW10      29.68R WCI  19
$$

ABBREVIATIONS USED IN REMARKS
   TC - TEMPERATURE IN CELSIUS
  WCI - WIND CHILL INDEX
   HX - HEAT INDEX
  VSB - VISIBILITY





USA.gov is the U.S. government's official web portal to all federal, state and local government web resources and services.